This demonstration page uses our WeatherBlox Daily Observations layout. Learn more.

Left ArrowRight Arrow

41.55636, -103.73856

Hourly Observations for October 5, 2021

Temp ( °F °C ) Dew Point ( °F °C ) Humidity (%) Winds ( mph kmh ) Pressure ( in mb ) Visibility ( mi km ) Precip ( " mm )
12:58 am 00:58 Clear 63 17.4 25 -4 23 23 S 24 39 30.09 1019 10 16 0.00 0.00
1:58 am 01:58 Clear 62 16.5 25 -3.8 25 25 SSW 24 39 30.09 1019 10 16 0.00 0.00
2:58 am 02:58 Clear 59 15.1 26 -3.1 29 29 SSW 22 35 30.10 1019 10 16 0.00 0.00
3:58 am 03:58 Clear 60 15.8 28 -2.4 29 29 SSW 23 37 30.07 1018 10 16 0.00 0.00
4:58 am 04:58 Clear 59 14.9 28 -2.4 30 30 SSW 21 33 30.08 1019 10 16 0.00 0.00
5:58 am 05:58 Clear 60 15.5 29 -1.6 31 31 SSW 25 41 30.09 1019 10 16 0.00 0.00
6:58 am 06:58 Sunny 55 13 28 -2.1 35 35 NW 5 7 30.13 1020 10 16 0.00 0.00
7:58 am 07:58 Sunny 54 12.4 28 -2 37 37 WSW 5 7 30.16 1021 10 16 0.00 0.00
8:58 am 08:58 Sunny 63 17.2 29 -1.9 27 27 WSW 8 13 30.14 1021 10 16 0.00 0.00
9:58 am 09:58 Sunny 72 22.1 28 -2.5 19 19 SW 9 15 30.13 1020 10 16 0.00 0.00
10:58 am 10:58 Sunny 77 25.2 26 -3.1 15 15 SSW 9 15 30.11 1020 10 16 0.00 0.00
11:58 am 11:58 Sunny 81 27.1 25 -4 13 13 S 10 17 30.08 1019 10 16 0.00 0.00
12:58 pm 12:58 Sunny 82 27.7 24 -4.2 12 12 S 14 22 30.05 1018 10 16 0.00 0.00
1:58 pm 13:58 Sunny 83 28.1 26 -3.3 13 13 S 21 33 30.03 1017 10 16 0.00 0.00
2:58 pm 14:58 Sunny 83 28.1 25 -3.9 12 12 S 18 30 30.01 1016 10 16 0.00 0.00
3:58 pm 15:58 Sunny 83 28.1 27 -2.7 13 13 S 18 30 30.01 1016 10 16 0.00 0.00
4:58 pm 16:58 Sunny 81 27.2 27 -2.6 14 14 SSE 20 31 30.01 1016 10 16 0.00 0.00
5:58 pm 17:58 Sunny 77 25 28 -2.1 17 17 SSE 21 33 30.01 1016 10 16 0.00 0.00
6:58 pm 18:58 Clear 72 22.4 29 -1.4 20 20 SSE 22 35 30.04 1017 10 16 0.00 0.00
7:58 pm 19:58 Clear 69 20.8 30 -1 23 23 SSE 24 39 30.05 1018 10 16 0.00 0.00
8:58 pm 20:58 Clear 66 19 30 -1.1 26 26 SSE 28 44 30.05 1018 10 16 0.00 0.00
9:58 pm 21:58 Clear 63 17.2 30 -1.3 29 29 S 28 44 30.02 1017 10 16 0.00 0.00
10:58 pm 22:58 Clear 60 15.7 29 -1.4 31 31 S 26 43 30.02 1017 10 16 0.00 0.00
11:58 pm 23:58 Clear 58 14.3 30 -1 35 35 S 25 41 30.01 1016 10 16 0.00 0.00

Powered by AerisWeather